| time (UTC) | temp C | wind direction | speed KPH | gust KPH | rain 1hr cm | rain 24hr cm | rain mn cm | humidity % | barometer mb |
| 20260510113035 | 19 | 20 | 1.6 | 9.7 | 0.00 | 0.00 | 0.00 | 49 | 1010.4 |
| 20260510111525 | 20 | 188 | 0.0 | 8.0 | 0.00 | 0.00 | 0.00 | 47 | 1010.7 |
| 20260510110022 | 20 | 254 | 4.8 | 14.5 | 0.00 | 0.00 | 0.00 | 49 | 1010.8 |
| 20260510104519 | 19 | 239 | 6.4 | 17.7 | 0.00 | 0.00 | 0.00 | 50 | 1011.0 |
| 20260510103019 | 19 | 232 | 8.0 | 16.1 | 0.00 | 0.00 | 0.00 | 51 | 1011.1 |
| 20260510101517 | 19 | 237 | 4.8 | 14.5 | 0.00 | 0.00 | 0.00 | 52 | 1011.3 |
| 20260510100015 | 18 | 259 | 3.2 | 11.3 | 0.00 | 0.00 | 0.00 | 53 | 1011.3 |
| 20260510094513 | 18 | 254 | 3.2 | 12.9 | 0.00 | 0.00 | 0.00 | 53 | 1011.4 |
| 20260510093009 | 17 | 123 | 9.7 | 14.5 | 0.00 | 0.00 | 0.00 | 54 | 1011.7 |
| 20260510091510 | 17 | 227 | 4.8 | 16.1 | 0.00 | 0.00 | 0.00 | 56 | 1011.7 |
| 20260510090003 | 17 | 194 | 3.2 | 12.9 | 0.00 | 0.00 | 0.00 | 60 | 1011.8 |
| 20260510084559 | 16 | 90 | 3.2 | 9.7 | 0.00 | 0.00 | 0.00 | 61 | 1012.0 |
| 20260510083057 | 16 | 139 | 4.8 | 8.0 | 0.00 | 0.00 | 0.00 | 60 | 1012.2 |
| 20260510081555 | 16 | 148 | 1.6 | 8.0 | 0.00 | 0.00 | 0.00 | 63 | 1012.3 |
| 20260510080055 | 15 | 178 | 0.0 | 11.3 | 0.00 | 0.00 | 0.00 | 68 | 1012.5 |
| 20260510074547 | 15 | 157 | 6.4 | 11.3 | 0.00 | 0.00 | 0.00 | 67 | 1012.6 |
| 20260510073101 | 14 | 194 | 1.6 | 8.0 | 0.00 | 0.00 | 0.00 | 73 | 1012.8 |
| 20260510071539 | 13 | 219 | 1.6 | 4.8 | 0.00 | 0.00 | 0.00 | 77 | 1013.1 |
| 20260510070032 | 12 | 216 | 1.6 | 9.7 | 0.00 | 0.00 | 0.00 | 82 | 1013.2 |
| 20260510064535 | 10 | 185 | 1.6 | 8.0 | 0.00 | 0.00 | 0.00 | 86 | 1013.2 |
| 20260510063033 | 10 | 55 | 1.6 | 6.4 | 0.00 | 0.00 | 0.00 | 89 | 1013.3 |
| 20260510061521 | 9 | 324 | 3.2 | 4.8 | 0.00 | 0.00 | 0.00 | 89 | 1013.5 |
| 20260510060022 | 8 | 323 | 0.0 | 3.2 | 0.00 | 0.00 | 0.00 | 90 | 1013.5 |
| 20260510054516 | 7 | 321 | 0.0 | 1.6 | 0.00 | 0.00 | 0.00 | 91 | 1013.7 |
| 20260510053015 | 7 | 321 | 0.0 | 1.6 | 0.00 | 0.00 | 0.00 | 91 | 1013.5 |
| 20260510051514 | 7 | 321 | 0.0 | 1.6 | 0.00 | 0.00 | 0.00 | 93 | 1013.5 |
| 20260510050013 | 6 | 321 | 0.0 | 0.0 | 0.00 | 0.00 | 0.00 | 94 | 1013.4 |
| 20260510044513 | 6 | 321 | 0.0 | 0.0 | 0.00 | 0.00 | 0.00 | 95 | 1013.5 |
| 20260510043012 | 5 | 321 | 0.0 | 0.0 | 0.00 | 0.00 | 0.00 | 95 | 1013.5 |
| 20260510041509 | 4 | 321 | 0.0 | 0.0 | 0.00 | 0.00 | 0.00 | 94 | 1013.8 |
| 20260510040010 | 4 | 321 | 0.0 | 0.0 | 0.00 | 0.00 | 0.00 | 94 | 1014.0 |
| 20260510034507 | 4 | 321 | 0.0 | 1.6 | 0.00 | 0.00 | 0.00 | 94 | 1013.9 |
| 20260510033005 | 3 | 321 | 0.0 | 0.0 | 0.00 | 0.00 | 0.00 | 94 | 1014.1 |
| 20260510031509 | 3 | 321 | 0.0 | 0.0 | 0.00 | 0.00 | 0.00 | 94 | 1014.2 |
| 20260510030008 | 4 | 321 | 0.0 | 1.6 | 0.00 | 0.00 | 0.00 | 93 | 1014.3 |
| 20260510024502 | 4 | 135 | 0.0 | 0.0 | 0.00 | 0.00 | 0.00 | 94 | 1014.2 |
| 20260510023001 | 4 | 135 | 0.0 | 0.0 | 0.00 | 0.00 | 0.00 | 94 | 1014.3 |
| 20260510021604 | 4 | 135 | 0.0 | 0.0 | 0.00 | 0.00 | 0.00 | 94 | 1014.3 |
| 20260510020059 | 4 | 135 | 0.0 | 1.6 | 0.00 | 0.00 | 0.00 | 93 | 1014.4 |
| 20260510014618 | 5 | 135 | 0.0 | 0.0 | 0.00 | 0.00 | 0.00 | 93 | 1014.5 |
| 20260510013054 | 5 | 135 | 0.0 | 0.0 | 0.00 | 0.00 | 0.00 | 93 | 1014.6 |
| 20260510011554 | 5 | 135 | 0.0 | 0.0 | 0.00 | 0.00 | 0.00 | 94 | 1014.8 |
| 20260510010051 | 5 | 135 | 0.0 | 1.6 | 0.00 | 0.00 | 0.00 | 93 | 1014.9 |
| 20260510004549 | 5 | 135 | 0.0 | 0.0 | 0.00 | 0.00 | 0.00 | 93 | 1015.1 |
| 20260510003119 | 5 | 135 | 0.0 | 0.0 | 0.00 | 0.00 | 0.00 | 92 | 1015.5 |
| 20260510001524 | 5 | 135 | 0.0 | 0.0 | 0.00 | 0.00 | 0.00 | 93 | 1015.8 |
| 20260510000021 | 6 | 135 | 0.0 | 0.0 | 0.00 | 0.00 | 0.00 | 92 | 1015.9 |
| 20260509234521 | 6 | 135 | 0.0 | 0.0 | 0.00 | 0.00 | 0.00 | 92 | 1016.1 |
| 20260509233016 | 6 | 135 | 0.0 | 0.0 | 0.00 | 0.00 | 0.00 | 92 | 1016.3 |
| 20260509231513 | 6 | 135 | 0.0 | 0.0 | 0.00 | 0.00 | 0.00 | 92 | 1016.4 |
| 20260509230011 | 6 | 135 | 0.0 | 0.0 | 0.00 | 0.00 | 0.00 | 91 | 1016.6 |
| 20260509224509 | 7 | 135 | 0.0 | 0.0 | 0.00 | 0.00 | 0.00 | 91 | 1016.7 |
| 20260509223007 | 7 | 135 | 0.0 | 0.0 | 0.00 | 0.00 | 0.00 | 90 | 1016.7 |
| 20260509221504 | 7 | 135 | 0.0 | 0.0 | 0.00 | 0.00 | 0.00 | 89 | 1016.7 |
| 20260509220001 | 7 | 135 | 0.0 | 0.0 | 0.00 | 0.00 | 0.00 | 88 | 1016.8 |
| 20260509214609 | 8 | 135 | 0.0 | 0.0 | 0.00 | 0.00 | 0.00 | 87 | 1016.8 |
| 20260509213057 | 8 | 135 | 0.0 | 0.0 | 0.00 | 0.00 | 0.00 | 87 | 1016.9 |
| 20260509211559 | 8 | 135 | 0.0 | 0.0 | 0.00 | 0.00 | 0.00 | 86 | 1016.7 |
| 20260509210113 | 8 | 135 | 0.0 | 0.0 | 0.00 | 0.00 | 0.00 | 86 | 1016.9 |
| 20260509204558 | 9 | 135 | 0.0 | 1.6 | 0.00 | 0.00 | 0.00 | 84 | 1016.9 |
| 20260509203055 | 10 | 135 | 0.0 | 3.2 | 0.00 | 0.00 | 0.00 | 82 | 1017.0 |
| 20260509201559 | 10 | 135 | 0.0 | 1.6 | 0.00 | 0.00 | 0.00 | 80 | 1017.0 |
| 20260509194552 | 11 | 135 | 0.0 | 1.6 | 0.00 | 0.00 | 0.00 | 77 | 1017.0 |
| 20260509193052 | 12 | 135 | 0.0 | 1.6 | 0.00 | 0.00 | 0.00 | 72 | 1016.8 |
| 20260509191556 | 13 | 135 | 0.0 | 1.6 | 0.00 | 0.00 | 0.00 | 70 | 1016.8 |
| 20260509190105 | 13 | 135 | 1.6 | 4.8 | 0.00 | 0.00 | 0.00 | 67 | 1016.7 |
| 20260509184551 | 13 | 133 | 1.6 | 4.8 | 0.00 | 0.00 | 0.00 | 66 | 1016.5 |
| 20260509183049 | 14 | 133 | 1.6 | 4.8 | 0.00 | 0.00 | 0.00 | 64 | 1016.4 |
| 20260509181550 | 14 | 133 | 1.6 | 4.8 | 0.00 | 0.00 | 0.00 | 62 | 1016.5 |
| 20260509180052 | 15 | 133 | 1.6 | 4.8 | 0.00 | 0.00 | 0.00 | 61 | 1016.6 |
| 20260509174546 | 15 | 133 | 3.2 | 8.0 | 0.00 | 0.00 | 0.00 | 59 | 1016.6 |
| 20260509173048 | 15 | 161 | 4.8 | 17.7 | 0.00 | 0.00 | 0.00 | 57 | 1016.5 |
| 20260509171547 | 15 | 91 | 6.4 | 17.7 | 0.00 | 0.00 | 0.00 | 55 | 1016.6 |
| 20260509170044 | 15 | 194 | 1.6 | 9.7 | 0.00 | 0.00 | 0.00 | 54 | 1016.7 |
| 20260509164550 | 15 | 85 | 3.2 | 9.7 | 0.00 | 0.00 | 0.00 | 57 | 1016.8 |
| 20260509163042 | 15 | 84 | 4.8 | 11.3 | 0.00 | 0.00 | 0.00 | 57 | 1016.9 |
| 20260509161541 | 15 | 136 | 4.8 | 11.3 | 0.00 | 0.00 | 0.00 | 56 | 1017.1 |
| 20260509160038 | 16 | 162 | 1.6 | 8.0 | 0.00 | 0.00 | 0.00 | 55 | 1017.2 |
| 20260509154535 | 15 | 155 | 3.2 | 9.7 | 0.00 | 0.00 | 0.00 | 57 | 1017.4 |
| 20260509153033 | 15 | 323 | 1.6 | 6.4 | 0.00 | 0.00 | 0.00 | 55 | 1017.6 |
| 20260509151536 | 16 | 185 | 1.6 | 11.3 | 0.00 | 0.00 | 0.00 | 55 | 1017.7 |
| 20260509124552 | 15 | 103 | 3.2 | 9.7 | 0.00 | 0.00 | 0.00 | 55 | 1018.7 |
| 20260509123052 | 15 | 66 | 1.6 | 4.8 | 0.00 | 0.00 | 0.00 | 56 | 1018.9 |
| 20260509121552 | 14 | 18 | 1.6 | 8.0 | 0.00 | 0.00 | 0.00 | 57 | 1019.0 |
| 20260509120048 | 14 | 74 | 4.8 | 8.0 | 0.00 | 0.00 | 0.00 | 58 | 1019.1 |
| 20260509114548 | 14 | 77 | 3.2 | 11.3 | 0.00 | 0.00 | 0.00 | 56 | 1019.2 |